Voltar ao catálogo

STARLINK-35596

AtivoComunicaçõesVLEO
NORAD 66086·PAYLOAD·🇺🇸 United States

Lançado Oct 19, 2025 de Vandenberg Space Force Base

Loading…

Próximas Passagens (próximas 24 horas)

TLE

AtualizadoSource: CelesTrak SupGP

Época: Sep 14, 2026, 21:12 UTC

1 66086C 25236A   26257.88381944  .00004468  00000+0  13203-3 0  2571
2 66086  53.1572 303.7154 0001309  84.6010 162.0124 15.34383781    16

Acompanhe STARLINK-35596 em tempo real com AllMySat

Download on the App Store